Kithira Airport, Greece

7:13 PM EET on February 25, 2017 (GMT +0200)
Kalamata Air Base

Weather History for LGKL - November, 2012

Change the Weather History Date:

Thursday, November 15, 2012

  Actual Average Record
Temperature  
Mean Temperature 60 °F -  
Max Temperature 71 °F 66 °F 75 °F (2010)
Min Temperature 50 °F 48 °F 42 °F (2011)
Degree Days  
Heating Degree Days 4    
Growing Degree Days 10 (Base 50)    
Moisture  
Dew Point 44 °F    
Average Humidity 56    
Maximum Humidity 76    
Minimum Humidity 38    
Precipitation  
Precipitation 0.00 in 0.19 in - ()
Sea Level Pressure  
Sea Level Pressure 30.07 in    
Wind  
Wind Speed 4 mph ()    
Max Wind Speed 8 mph    
Max Gust Speed -    
Visibility 6.2 miles    
Events      
Averages and records for this station are not official NWS values.
T = Trace of Precipitation, MM = Missing Value Source: Averaged Metar Reports

Daily Weather History Graph

Daily Weather History Graph

Search for Another Location

Airport or City:

Trip Planner

Search our weather history database for the weather conditions in past years. The results will help you decide how hot, cold, wet, or windy it might be!

Date:

Astronomy

Nov. 15, 2012 Rise Set
Actual Time 7:10 AM EET 5:21 PM EET
Civil Twilight 6:43 AM EET 5:49 PM EET
Nautical Twilight 6:11 AM EET 6:21 PM EET
Astronomical Twilight 5:40 AM EET 6:51 PM EET
Moon 8:45 AM EET (11/15) 6:54 PM EET (11/15)
Length of Visible Light 11h 06m
Length of Day
10h 11m
Waxing Crescent, 3% of the Moon is Illuminated
Nov 15
Waxing Crescent
Nov 20
First Quarter
Nov 28
Full
Dec 6
Last Quarter
Dec 13
New

Hourly Weather History & Observations

Time (EET) Temp. Dew Point Humidity Pressure Visibility Wind Dir Wind Speed Gust Speed Precip Events Conditions
1:50 AM 53.6 °F 42.8 °F 67% 30.12 in - NNW 6.9 mph - N/A   Clear
4:50 AM 51.8 °F 42.8 °F 71% 30.09 in - NNW 4.6 mph - N/A   Clear
5:20 AM 51.8 °F 42.8 °F 71% 30.09 in - NW 6.9 mph - N/A   Clear
5:50 AM 51.8 °F 42.8 °F 71% 30.09 in - NW 5.8 mph - N/A   Clear
6:20 AM 50.0 °F 42.8 °F 76% 30.09 in - NW 5.8 mph - N/A   Clear
6:50 AM 50.0 °F 42.8 °F 76% 30.09 in - Calm Calm - N/A   Clear
7:20 AM 50.0 °F 42.8 °F 76% 30.12 in - NNW 5.8 mph - N/A   Clear
7:50 AM 50.0 °F 42.8 °F 76% 30.12 in - North 4.6 mph - N/A   Clear
8:20 AM 53.6 °F 44.6 °F 72% 30.12 in - NNW 6.9 mph - N/A   Clear
8:50 AM 57.2 °F 46.4 °F 67% 30.12 in - NNW 8.1 mph - N/A   Clear
9:20 AM 60.8 °F 48.2 °F 63% 30.12 in 6.2 mi NNW 8.1 mph - N/A   Partly Cloudy
9:50 AM 64.4 °F 48.2 °F 56% 30.12 in 6.2 mi North 5.8 mph - N/A   Partly Cloudy
10:20 AM 68.0 °F 44.6 °F 43% 30.12 in 6.2 mi NNW 5.8 mph - N/A   Partly Cloudy
10:50 AM 69.8 °F 42.8 °F 38% 30.09 in 6.2 mi Calm Calm - N/A   Partly Cloudy
11:20 AM 69.8 °F 42.8 °F 38% 30.09 in 6.2 mi Calm Calm - N/A   Partly Cloudy
11:50 AM 69.8 °F 42.8 °F 38% 30.09 in 6.2 mi South 5.8 mph - N/A   Scattered Clouds
12:20 PM 69.8 °F 44.6 °F 40% 30.06 in 6.2 mi SSE 5.8 mph - N/A   Scattered Clouds
12:50 PM 69.8 °F 42.8 °F 38% 30.06 in 6.2 mi South 5.8 mph - N/A   Scattered Clouds
1:20 PM 68.0 °F 44.6 °F 43% 30.06 in 6.2 mi South 6.9 mph - N/A   Scattered Clouds
1:50 PM 69.8 °F 42.8 °F 38% 30.04 in 6.2 mi South 4.6 mph - N/A   Scattered Clouds
2:20 PM 69.8 °F 44.6 °F 40% 30.04 in 6.2 mi Calm Calm - N/A   Scattered Clouds
2:50 PM 69.8 °F 44.6 °F 40% 30.04 in 6.2 mi Calm Calm - N/A   Scattered Clouds
3:20 PM 71.6 °F 44.6 °F 38% 30.01 in 6.2 mi Calm Calm - N/A   Partly Cloudy
3:50 PM 71.6 °F 44.6 °F 38% 30.01 in 6.2 mi Calm Calm - N/A   Partly Cloudy
4:20 PM 69.8 °F 44.6 °F 40% 30.01 in 6.2 mi Calm Calm - N/A   Partly Cloudy
4:50 PM 66.2 °F 46.4 °F 49% 30.01 in 6.2 mi Calm Calm - N/A   Partly Cloudy
5:20 PM 62.6 °F 46.4 °F 55% 30.01 in 6.2 mi Calm Calm - N/A   Partly Cloudy
5:50 PM 60.8 °F 44.6 °F 55% 30.01 in 6.2 mi Calm Calm - N/A   Partly Cloudy
6:20 PM 59.0 °F 44.6 °F 59% 30.04 in 6.2 mi Calm Calm - N/A   Partly Cloudy
6:50 PM 57.2 °F 44.6 °F 63% 30.04 in 6.2 mi NNW 6.9 mph - N/A   Partly Cloudy
7:20 PM 55.4 °F 44.6 °F 67% 30.04 in 6.2 mi NNW 5.8 mph - N/A   Scattered Clouds
7:50 PM 55.4 °F 44.6 °F 67% 30.04 in 6.2 mi Calm Calm - N/A   Scattered Clouds
8:20 PM 57.2 °F 44.6 °F 63% 30.04 in 6.2 mi NNW 8.1 mph - N/A   Partly Cloudy
10:50 PM 53.6 °F 44.6 °F 72% 30.04 in 6.2 mi NNW 6.9 mph - N/A   Scattered Clouds